Probability
0 0 0 0 0 0 0 0 0 0 0 0 0 0 0 0 0 0 0 0 0 0 0 0 0 0 0 0 0 0 0 0 0 0 0 0 0 0 0 0 0 0 0 0
0 0 0 0 0 0 0 0 0 0 0 0 0 0 0 0 0 0 0 0 0 0 0 0 0 0 0 0 0 0 0 0 0 0 0 0 0 0 0 0 0 0 0 0
0 0 0 0 0 0 0 0 0 0 0 0 0 0 0 0 0 0 0 0 0 0 0 0 0 0 0 0 0 0 0 0 0 0 0 0 0 0 0 0 0 0 0 0
0 0 0 0 0 0 0 0 0 0 0 0 0 0 0 0 0 0 0 0 0 0 0 0 0 0 0 0 0 0 0 0 0 0 0 0 0 0 0 0 0 0 0 0
0 0 0 0 0 0 0 0 0 0 0 0 0 0 0 0 0 0 0 0 0 0 0 0 0 0 0 0 0 0 0 0 0 0 0 0 0 0 0 0 0 0 0 0
0 0 0 0 0 0 0 0 0 0 0 0 0 0 0 0 0 0 0 0 0 0 0 0 0 0 0 0 0 0 0 0 0 0 0 0 0 0 0 0 0 0 0 0
0 0 0 0 0 0 0 0 0 0 0 0 0 0 0 0 0 0 0 0 0 0 0 0 0 0 0 0 0 0 0 0 0 0 0 0 0 0 0 0 0 0 0 0
0 0 0 0 0 0 0 0 0 0 0 0 0 0 0 0 0 0 0 0 0 0 0 0 0 0 0 0 0 0 0 0 0 0 0 0 0 0 0 0 0 0 0 0
0 0 0 0 0 0 0 0 0 0 0 0 0 0 0 0 0 0 0 0 0 0 0 0 0 0 0 0 0 0 0 0 0 0 0 0 0 0 0 0 0 0 0 0
0 0 0 0 0 0 0 0 0 0 0 0 0 0 0 0 0 0 0 0 0 0 0 0 0 0 0 0 0 0 1 1 1 0 0 0 0 0 0 0 0 0 0 0
0 0 0 0 0 0 0 0 0 0 0 0 0 0 0 0 0 0 0 0 0 0 0 0 0 0 0 0 0 0 1 1 1 0 0 0 1 0 0 0 0 0 0 0
0 0 0 0 0 0 0 0 0 0 0 0 0 0 0 0 0 0 0 0 0 0 0 0 0 0 0 0 0 0 0 1 1 0 0 0 0 0 0 0 0 0 0 0
0 0 0 0 0 0 0 0 0 0 0 0 0 0 0 0 0 0 0 0 0 0 0 0 0 0 0 0 0 0 0 1 1 1 0 0 0 0 0 0 0 0 0 0
0 0 0 0 0 0 0 0 0 0 0 0 0 0 0 0 0 0 0 0 0 0 0 0 0 0 0 0 0 0 0 1 1 1 0 0 0 0 0 0 0 0 0 0
0 0 0 0 0 0 0 0 0 0 0 0 0 0 0 0 0 0 0 0 0 0 0 0 0 0 0 0 0 0 0 0 0 0 0 0 0 0 0 0 0 0 0 0
0 0 0 0 0 0 0 0 0 0 0 0 0 0 0 0 0 0 0 0 0 0 0 0 0 0 0 0 0 0 0 0 0 0 0 0 0 0 0 0 0 0 0 0
0 0 0 0 0 0 0 0 0 0 0 0 0 0 0 0 0 0 0 0 0 0 0 0 0 0 0 0 0 0 0 0 0 0 0 0 0 0 0 0 0 0 0 0
0 0 0 0 0 0 0 0 0 0 0 0 0 0 0 0 0 0 0 0 0 0 0 0 0 0 0 0 0 0 0 0 0 0 0 0 0 0 0 0 0 0 0 0
0 0 0 0 0 0 0 0 0 0 0 0 0 0 0 0 0 0 0 0 0 0 0 0 0 0 0 0 0 0 0 0 0 0 0 0 0 0 0 0 0 0 0 0
0 0 0 0 0 0 0 0 0 0 0 0 0 0 0 0 0 0 0 0 0 0 0 0 0 0 0 0 0 0 0 0 0 0 1 0 0 0 0 0 1 1 1 1
0 0 0 0 0 0 0 0 0 0 0 0 0 0 0 0 0 0 0 0 0 0 0 0 0 0 0 0 0 0 0 0 0 0 0 0 0 0 0 0 1 1 2 2
0 0 0 0 0 0 0 0 0 0 0 0 0 0 0 0 0 0 0 0 0 0 0 0 0 0 0 0 0 0 0 0 0 0 0 0 0 0 0 0 1 2 2 3
0 0 0 0 0 0 0 0 0 0 0 0 0 0 0 0 0 0 0 0 0 0 0 0 0 0 0 0 0 0 0 0 0 0 0 0 0 0 0 0 1 1 1 2
0 0 0 0 0 0 0 0 0 0 0 0 0 0 0 0 0 0 0 0 0 0 0 0 0 0 0 0 0 0 0 0 0 0 0 0 0 0 0 0 0 0 0 1
0 0 0 0 0 0 0 0 0 0 0 0 0 0 0 0 0 0 0 0 0 0 0 0 0 0 0 0 0 0 0 0 0 0 0 0 0 0 0 0 0 0 0 0
0 0 0 0 0 0 0 0 0 0 0 0 0 0 0 0 0 0 0 0 0 0 0 0 0 0 0 0 0 0 0 0 0 0 0 0 0 0 0 0 0 0 0 0
0 0 0 0 0 0 0 0 0 0 0 0 0 0 0 0 0 0 0 0 0 0 0 0 0 0 0 0 0 0 0 0 0 0 0 0 0 0 0 0 0 0 0 0
Wind_Speed
8 6 6 7 8 9 11 11 11 9 9 7 5 4 3 2 1 1 1 1 1 2 1 2 2 2 1 1 1 2 2 1 1 1 1 1 1 1 1 2 2 2 2 3
7 6 6 9 10 10 11 11 12 11 10 6 4 3 3 2 1 2 2 1 1 1 1 2 2 2 1 1 1 1 1 1 1 1 2 2 1 1 1 1 2 2 2 2
7 5 7 10 9 10 9 9 10 10 7 4 4 3 3 2 2 2 2 2 2 2 2 2 2 2 2 1 1 1 1 1 2 2 2 2 2 2 2 2 1 2 2 2
6 6 10 2 1 5 7 7 7 7 5 5 4 3 3 2 2 2 2 2 2 2 2 2 2 2 2 1 1 2 2 2 2 2 2 2 2 2 2 2 2 2 2 3
6 8 8 5 4 5 6 6 5 5 4 3 2 3 2 0 1 2 2 2 2 2 2 2 2 2 2 2 2 2 2 2 2 2 2 2 2 2 2 2 2 2 3 3
7 8 8 2 2 2 6 6 2 3 3 2 3 4 1 1 1 2 2 2 1 1 2 1 2 2 3 3 3 3 3 3 2 2 2 2 2 2 2 2 3 3 3 3
10 9 7 0 2 4 6 1 2 2 3 4 4 4 2 2 1 2 2 2 1 2 2 2 2 3 4 4 3 3 3 2 2 2 2 2 2 2 2 2 2 3 3 3
8 10 7 3 5 5 2 2 0 2 3 3 3 2 2 2 2 2 2 2 2 2 2 2 2 3 4 3 2 2 2 3 2 3 2 2 2 2 2 2 3 3 3 3
6 5 2 3 3 2 2 2 2 3 3 3 3 3 2 2 2 2 2 2 2 2 2 2 2 3 4 3 2 2 3 3 2 2 3 3 3 3 3 3 3 3 3 3
8 8 6 6 6 5 4 4 4 3 3 3 4 3 3 3 3 3 3 2 2 2 2 2 2 3 3 3 3 3 3 3 3 3 3 3 3 3 3 3 3 3 3 3
10 8 7 7 7 6 5 4 4 3 4 4 4 4 4 3 3 3 3 2 2 2 3 3 2 3 3 3 3 4 4 3 3 3 3 3 2 2 3 3 3 4 4 4
9 7 7 7 6 5 5 5 4 3 3 3 3 4 4 4 3 3 3 3 2 2 3 3 2 3 3 3 4 4 4 3 3 3 3 3 3 2 1 3 2 3 4 5
9 7 7 7 6 6 6 5 5 4 4 4 3 3 4 3 3 3 3 3 3 2 2 2 2 2 2 3 4 5 4 4 3 3 3 3 3 3 3 2 3 4 4 4
8 8 9 8 7 6 5 5 4 4 4 3 3 3 3 3 3 3 3 3 3 3 2 2 2 2 2 2 3 4 4 3 3 3 3 3 3 3 3 3 3 2 2 3
9 9 9 7 6 5 5 4 4 4 3 3 3 3 3 3 3 3 3 3 2 2 2 2 2 2 2 2 3 3 3 3 2 3 3 3 3 3 3 4 3 3 3 2
7 7 7 7 7 6 6 6 6 5 4 4 3 3 3 3 3 3 3 3 2 3 3 3 3 3 2 2 3 2 2 2 3 2 3 2 3 3 3 3 4 3 3 3
7 7 7 7 7 7 7 7 6 5 5 5 4 3 3 3 3 3 3 3 3 3 3 3 3 3 2 3 3 2 2 2 3 3 3 3 3 3 3 3 4 4 3 2
8 7 7 7 6 6 6 6 6 6 5 4 4 4 4 4 4 4 3 3 3 3 3 3 3 3 2 3 2 2 2 2 2 2 2 2 3 3 3 4 4 4 4 2
5 5 5 6 6 6 6 5 5 5 5 4 5 5 4 4 4 4 3 3 3 4 4 3 3 3 3 2 2 2 2 2 2 2 2 2 3 3 3 3 4 4 4 3
3 4 4 4 4 4 4 4 4 4 4 5 4 4 4 4 4 4 4 4 3 3 3 3 3 3 3 2 2 2 3 3 3 3 3 3 3 3 3 3 4 4 4 3
3 3 3 3 3 3 4 4 4 4 4 4 4 4 4 4 3 3 3 4 3 3 3 3 3 3 3 2 3 3 3 3 3 3 3 3 3 3 3 3 3 4 4 4
3 2 3 2 2 3 3 3 3 4 4 4 4 4 3 3 3 3 4 3 3 2 3 3 3 2 3 3 3 3 3 3 3 3 3 3 3 3 3 3 3 3 3 4
3 3 3 2 2 2 2 2 3 4 4 4 3 4 4 3 3 3 3 2 2 3 3 3 3 3 4 3 3 3 4 4 4 3 3 3 3 3 3 4 3 3 4 4
3 2 2 2 2 2 3 2 2 2 3 3 3 3 3 3 3 3 3 2 3 3 3 3 4 4 5 3 3 3 4 4 3 3 3 3 3 3 3 3 4 3 4 5
3 2 2 3 3 2 2 2 2 2 2 2 2 2 2 2 3 3 3 3 3 3 3 3 3 4 4 3 3 3 3 3 3 3 3 3 3 3 3 4 4 4 4 4
3 2 2 3 3 2 2 2 2 2 2 2 2 2 2 2 2 2 2 3 4 3 3 2 3 3 3 3 3 3 3 3 3 3 3 3 3 4 3 4 5 4 4 4
3 3 2 2 2 2 2 2 2 2 2 2 2 2 2 2 2 2 3 3 3 2 2 2 2 2 3 3 3 3 3 3 3 3 3 3 3 3 3 4 3 3 3 3
Wind_Direction
266 268 251 252 246 234 239 253 261 268 270 278 285 297 307 303 289 240 207 200 195 207 192 188 194 205 200 189 182 187 186 201 208 202 196 219 215 234 242 242 251 247 247 248
250 238 243 252 250 244 245 251 255 262 266 279 287 289 287 280 246 232 228 224 208 216 206 205 202 205 194 192 192 194 197 204 205 216 199 208 215 214 223 238 247 251 248 246
252 240 250 247 237 233 236 240 249 258 269 268 261 271 284 282 245 243 242 236 234 229 226 222 208 197 200 194 187 192 215 238 232 215 198 198 204 203 214 220 225 244 244 242
258 250 244 241 182 232 240 247 253 260 266 260 267 277 282 275 266 260 259 244 240 238 229 227 208 200 201 188 186 197 211 246 233 213 202 197 200 211 228 235 227 240 252 254
240 253 261 243 216 217 234 247 247 252 252 266 286 246 223 88 303 284 275 254 244 240 227 220 209 207 203 198 201 207 222 245 230 213 208 210 213 223 230 237 243 249 253 260
231 247 252 227 150 212 244 242 203 231 228 230 222 248 238 10 312 291 287 271 257 234 226 218 220 213 216 216 218 219 225 232 232 221 217 217 226 231 229 232 245 255 255 261
234 244 256 266 147 197 230 297 122 221 228 224 239 292 338 327 319 314 303 295 269 230 224 219 227 227 230 230 230 225 228 226 221 215 216 218 231 235 241 244 250 257 262 264
225 235 241 139 169 217 298 22 192 244 250 251 268 306 310 298 303 317 319 303 274 252 242 215 220 233 241 245 244 230 219 215 218 212 208 214 225 241 252 257 257 260 266 271
234 250 338 180 219 272 306 277 283 273 266 258 262 269 279 283 285 295 307 298 273 262 252 229 222 235 250 253 242 228 222 223 223 225 216 218 228 238 247 251 257 263 265 268
248 250 256 251 257 260 256 269 281 278 266 252 253 257 267 275 279 282 291 292 276 261 257 250 238 240 253 252 234 221 221 227 229 230 236 230 228 238 249 255 256 261 264 265
252 256 261 254 252 256 259 258 260 265 265 260 254 254 260 267 274 282 284 280 268 260 258 256 249 241 241 244 234 229 226 226 230 232 237 246 239 253 260 266 278 268 270 272
253 254 259 262 253 255 254 250 245 245 258 261 254 255 265 271 278 282 283 284 276 270 266 261 254 251 240 236 239 238 235 238 239 237 237 243 249 245 248 251 255 260 270 277
270 277 280 276 269 265 255 251 248 245 246 256 261 257 261 268 272 278 279 279 276 270 268 262 255 254 249 238 241 243 245 244 242 238 235 238 248 256 262 250 228 237 245 258
258 258 262 262 261 257 250 247 245 245 245 247 253 252 255 264 267 271 280 285 281 275 271 266 256 262 264 247 241 246 251 251 251 247 245 244 249 259 264 269 275 272 238 233
251 256 259 261 254 250 247 238 232 235 241 240 234 233 240 254 263 276 288 293 287 279 281 285 279 275 272 257 250 249 249 248 246 251 251 249 249 257 264 267 269 272 276 252
255 256 247 240 238 238 237 234 235 239 238 233 229 229 233 243 261 275 281 282 277 276 282 282 283 283 268 252 248 247 245 253 252 251 249 251 249 252 261 268 271 271 275 282
241 240 235 233 234 235 236 239 239 235 230 229 228 228 231 236 250 264 272 270 268 273 276 277 284 283 261 246 241 242 243 232 229 242 248 256 262 265 263 265 268 272 279 288
241 242 241 239 237 238 240 242 239 230 226 223 219 221 228 235 244 256 263 264 270 284 290 289 290 278 261 252 246 246 243 244 240 245 252 258 266 267 267 266 266 269 276 264
239 239 241 242 237 234 235 235 233 228 219 213 215 223 233 242 250 253 253 255 262 271 280 285 294 272 262 261 257 242 243 247 251 254 255 256 258 264 268 271 272 268 269 270
246 241 243 246 237 234 235 231 221 214 211 209 212 222 232 243 253 253 251 254 257 269 274 278 271 267 262 255 252 245 242 245 250 253 257 259 260 264 268 272 278 278 272 268
256 254 251 241 240 243 240 229 214 208 208 209 215 223 236 245 248 248 250 257 263 270 273 272 264 264 266 270 245 245 241 243 247 252 252 255 257 260 263 269 274 278 279 274
263 258 250 238 236 244 241 228 212 206 206 215 221 228 237 240 244 250 253 261 263 255 258 256 256 266 276 273 248 243 242 244 247 250 252 253 254 257 261 267 269 274 278 280
262 253 246 238 239 249 248 231 216 211 211 216 223 232 237 243 242 244 256 263 267 265 267 261 265 271 272 258 245 241 238 239 242 246 249 253 256 259 262 264 266 270 275 280
261 250 248 245 236 231 233 237 235 228 225 231 237 243 245 249 253 255 264 250 258 265 262 254 253 260 261 252 246 244 239 236 239 245 250 254 257 259 261 263 264 267 270 275
263 251 236 233 235 240 238 234 237 235 234 243 251 251 254 256 262 266 264 257 248 252 259 255 254 259 252 249 247 249 248 244 247 254 253 253 257 259 261 264 267 269 270 270
260 255 247 246 253 250 237 229 233 235 238 249 258 261 264 262 261 264 263 262 261 260 263 263 257 250 251 256 255 254 253 245 240 243 250 254 255 258 262 263 268 269 270 271
258 253 247 249 243 236 231 231 239 246 246 245 257 268 269 269 268 266 266 265 261 254 256 259 257 254 253 254 254 254 257 257 252 250 251 254 257 259 262 267 269 268 268 270